This is the latest recevied weather packets stored in our database for station/object K9TLD. If no packets are shown the sender has not sent any weather packets the latest 1 day(s).
| Time | Temp. | Humidity | Pressure | Rain* | Wind** | Luminosity | Snow |
|---|---|---|---|---|---|---|---|
| 1777983151 | 8.89° C | 48% | 1008.4 hPa | 0 mm | 0 m/s | 126 W/m² | - |
| 1777982847 | 8.89° C | 47% | 1008.4 hPa | 0 mm | 0 m/s | 113 W/m² | - |
| 1777982543 | 8.33° C | 48% | 1008.5 hPa | 0 mm | 0.45 m/s, 223° | 102 W/m² | - |
| 1777982241 | 8.33° C | 48% | 1008.1 hPa | 0 mm | 0 m/s | 91 W/m² | - |
| 1777981939 | 8.33° C | 47% | 1008.3 hPa | 0 mm | 0.89 m/s, 256° | 84 W/m² | - |
| 1777981636 | 8.33° C | 49% | 1008.3 hPa | 0 mm | 0 m/s | 73 W/m² | - |
| 1777981332 | 7.78° C | 49% | 1008.3 hPa | 0 mm | 0 m/s | 64 W/m² | - |
| 1777981029 | 7.78° C | 50% | 1008.3 hPa | 0 mm | 0 m/s | 56 W/m² | - |
| 1777980726 | 7.22° C | 52% | 1008.2 hPa | 0 mm | 0 m/s | 47 W/m² | - |
| 1777980422 | 6.67° C | 54% | 1008.4 hPa | 0 mm | 0 m/s | 37 W/m² | - |
| 1777980120 | 6.11° C | 57% | 1008.5 hPa | 0 mm | 0 m/s | 28 W/m² | - |
| 1777979819 | 5° C | 58% | 1008.3 hPa | 0 mm | 0 m/s | 22 W/m² | - |
| 1777979515 | 5° C | 58% | 1008.3 hPa | 0 mm | 0 m/s | 12 W/m² | - |
| 1777979211 | 5° C | 58% | 1008.2 hPa | 0 mm | 0 m/s | 9 W/m² | - |
| 1777978909 | 5.56° C | 58% | 1008.1 hPa | 0 mm | 0 m/s | 7 W/m² | - |
| 1777978606 | 5.56° C | 57% | 1008 hPa | 0 mm | 0 m/s | 6 W/m² | - |
| 1777978301 | 5.56° C | 56% | 1008 hPa | 0 mm | 0 m/s | 4 W/m² | - |
| 1777977999 | 5.56° C | 58% | 1007.7 hPa | 0 mm | 0 m/s | 3 W/m² | - |
| 1777977696 | 5.56° C | 58% | 1007.8 hPa | 0 mm | 0 m/s | 2 W/m² | - |
| 1777977392 | 5.56° C | 57% | 1007.5 hPa | 0 mm | 0 m/s | 1 W/m² | - |
| 1777977090 | 5.56° C | 57% | 1007.6 hPa | 0 mm | 0 m/s | 1 W/m² | - |
| 1777976787 | 6.11° C | 56% | 1007.7 hPa | 0 mm | 0 m/s | 0 W/m² | - |
| 1777976485 | 6.11° C | 56% | 1007.5 hPa | 0 mm | 0 m/s | 0 W/m² | - |
| 1777976183 | 6.67° C | 55% | 1007.5 hPa | 0 mm | 0 m/s | 0 W/m² | - |
| 1777975879 | 6.67° C | 55% | 1007.7 hPa | 0 mm | 0 m/s | 0 W/m² | - |
* Rain latest hour (hover to see other rain measurements)
** Current wind speed in m/s (hover to see current wind gust speed)